GW2092 Weather Reports


time (UTC)temp
F
wind
direction
speed
knots
gust
knots
rain 1hr
in
rain 24hr
in
rain mn
in
humidity
%
barometer
mb
20260506001544 46 0 1.7 6.1 0.00 0.86 0.86 89 1010.3
20260506000051 47 356 0.0 7.8 0.00 0.86 0.86 88 1010.2
20260505234540 47 1 1.7 6.1 0.00 0.86 0.86 88 1010.0
20260505233038 47 359 3.5 9.6 0.00 0.86 0.86 87 1009.6
20260505231541 47 58 0.9 7.8 0.00 0.86 0.86 87 1009.4
20260505230038 48 96 1.7 7.8 0.00 0.86 0.86 85 1009.5
20260505224546 48 8 0.0 7.8 0.00 0.86 0.86 84 1009.4
20260505223042 48 65 1.7 6.1 0.00 0.86 0.86 84 1009.1
20260505221546 49 4 0.0 8.7 0.00 0.86 0.86 84 1008.8
20260505220059 49 39 0.9 12.2 0.00 0.86 0.86 84 1008.9
20260505214551 49 97 2.6 7.8 0.00 0.86 0.86 84 1008.8
20260505213044 49 91 3.5 9.6 0.00 0.86 0.86 85 1008.8
20260505211545 49 345 0.0 8.7 0.00 0.86 0.86 87 1008.7
20260505210046 49 91 2.6 10.4 0.00 0.86 0.86 86 1008.7
20260505204555 50 11 1.7 7.8 0.00 0.86 0.86 88 1008.7
20260505203046 50 38 2.6 9.6 0.00 0.86 0.86 87 1008.7
20260505201548 50 42 1.7 11.3 0.00 0.86 0.86 88 1008.6
20260505200042 50 31 2.6 8.7 0.00 0.86 0.86 88 1008.8
20260505194556 51 58 1.7 7.8 0.00 0.86 0.86 89 1008.5
20260505193047 51 81 1.7 7.0 0.00 0.86 0.86 88 1008.5
20260505191547 52 37 2.6 9.6 0.00 0.86 0.86 87 1007.9
20260505190043 52 45 0.9 8.7 0.00 0.86 0.86 87 1008.1
20260505184550 52 60 1.7 9.6 0.00 0.86 0.86 86 1008.3
20260505183054 52 311 0.9 7.0 0.00 0.86 0.86 86 1008.3
20260505181539 53 321 1.7 11.3 0.00 0.86 0.86 86 1008.1
20260505180050 53 51 2.6 10.4 0.00 0.86 0.86 86 1007.6
20260505174548 53 64 3.5 13.9 0.00 0.86 0.86 87 1007.8
20260505173042 53 58 0.9 8.7 0.00 0.86 0.86 89 1007.7
20260505171550 53 33 3.5 10.4 0.00 0.86 0.86 89 1007.5
20260505170051 54 340 0.9 7.8 0.00 0.86 0.86 90 1007.8
20260505164559 54 25 1.7 6.1 0.01 0.86 0.86 90 1007.7
20260505163039 54 41 0.9 8.7 0.01 0.86 0.86 91 1007.3
20260505161553 54 0 1.7 8.7 0.01 0.86 0.86 90 1007.4
20260505153045 57 80 2.6 7.8 0.00 0.85 0.85 90 1007.0
20260505151547 57 0 1.7 7.0 0.00 0.85 0.85 91 1006.8
20260505124549 59 0 0.0 3.5 0.02 0.85 0.85 96 1006.2
20260505123043 59 0 0.0 2.6 0.01 0.84 0.84 96 1006.3
20260505121549 59 0 0.0 2.6 0.01 0.84 0.84 96 1005.8
20260505120059 59 0 0.0 2.6 0.00 0.83 0.83 96 1005.8
20260505114543 60 0 0.0 1.7 0.01 0.83 0.83 96 1005.4
20260505113049 60 68 0.0 2.6 0.01 0.83 0.83 96 1005.3
20260505111547 60 63 0.0 2.6 0.02 0.83 0.83 96 1005.1
20260505101546 60 124 0.0 2.6 0.01 0.81 0.81 96 1005.0
20260505100039 60 139 0.0 3.5 0.04 0.81 0.81 96 1005.1
20260505094545 60 0 0.0 1.7 0.06 0.81 0.81 96 1005.3
20260505093050 60 0 0.0 0.9 0.08 0.81 0.81 96 1005.7
20260505091547 60 0 0.0 0.9 0.11 0.80 0.80 96 1005.8
20260505090047 60 153 0.0 5.2 0.22 0.77 0.77 96 1005.6
20260505084553 60 239 0.0 3.5 0.29 0.75 0.75 96 1005.5
20260505083051 60 212 0.9 3.5 0.34 0.73 0.73 95 1005.4
20260505081549 60 0 0.0 1.7 0.34 0.69 0.69 95 1006.1
20260505080043 60 0 0.0 2.6 0.24 0.55 0.55 95 1007.1
20260505074539 60 191 0.0 1.7 0.24 0.46 0.46 94 1005.6
20260505073049 60 0 0.0 0.9 0.30 0.39 0.39 94 1006.1
20260505071545 60 0 0.0 0.9 0.30 0.35 0.35 93 1007.8
20260505070047 61 0 0.0 0.9 0.27 0.30 0.30 92 1007.9
20260505064540 61 0 0.0 1.7 0.21 0.22 0.22 91 1007.9
20260505063047 62 0 0.0 0.9 0.09 0.09 0.09 88 1007.3
20260505061546 62 0 0.0 0.9 0.05 0.05 0.05 85 1006.3
20260505060051 63 0 0.0 3.5 0.03 0.03 0.03 82 1005.9
20260505054549 65 182 0.0 7.0 0.01 0.01 0.01 78 1005.5
20260505053111 66 121 0.9 6.1 0.00 0.00 0.00 75 1005.8
20260505051549 66 160 0.0 4.3 0.00 0.00 0.00 73 1006.0
20260505041545 67 0 0.0 3.5 0.00 0.00 0.00 72 1006.0
20260505040051 66 0 0.0 3.5 0.00 0.00 0.00 72 1006.0
20260505034601 66 0 0.0 2.6 0.00 0.00 0.00 73 1006.6
20260505033052 66 98 0.0 2.6 0.00 0.00 0.00 73 1006.7
20260505031545 66 0 0.0 3.5 0.00 0.00 0.00 72 1006.8
20260505030046 67 0 0.0 2.6 0.00 0.00 0.00 71 1006.7
20260505024549 67 190 0.9 3.5 0.00 0.00 0.00 71 1006.6
20260505023050 67 0 0.0 2.6 0.00 0.00 0.00 71 1006.4
20260505021544 67 141 0.0 3.5 0.00 0.00 0.00 70 1006.2
20260505020045 67 0 0.0 2.6 0.00 0.00 0.00 70 1006.1
20260505014551 68 0 0.0 0.9 0.00 0.00 0.00 70 1006.0
20260505013105 69 0 0.0 0.0 0.00 0.00 0.00 68 1006.1
20260505011558 70 0 0.0 0.9 0.00 0.00 0.00 66 1006.0
20260505010039 71 0 0.0 2.6 0.00 0.00 0.00 65 1005.8
20260505004547 71 162 0.0 2.6 0.00 0.00 0.00 63 1005.8
20260505003052 72 4 0.0 5.2 0.00 0.00 0.00 62 1005.7